Вернуться в каталог

CZ-4C R/B

АктивенSSO
NORAD 39261·ROCKET BODY·🇨🇳 China

Запущен Sep 23, 2013 с Taiyuan Satellite Launch Center

Loading…

Ближайшие Пролёты (ближайшие 24 часа)

TLE

СвежийSource: Space-Track

Эпоха: Sep 14, 2026, 09:47 UTC

1 39261U 13052B   26257.40780752  .00000041  00000-0  31000-4 0  9990
2 39261  98.8239 147.4972 0031226 191.0237 169.0266 14.33975176678505

Отслеживайте CZ-4C R/B в реальном времени с AllMySat

Download on the App Store